Weather History for Tulsa Jones, OK

Change the Weather History Date:

Tuesday, January 8, 2013

  Actual Average (KTUL) Record (KTUL)
Temperature  
Mean Temperature 41 °F 37 °F  
Max Temperature 55 °F 47 °F 75 °F (2003)
Min Temperature 27 °F 27 °F -5 °F (1988)
Degree Days  
Heating Degree Days 24 28  
Month to date heating degree days 224  
Since 1 July heating degree days 1652  
Moisture  
Dew Point 36 °F    
Average Humidity 79    
Maximum Humidity 96    
Minimum Humidity 43    
Precipitation  
Precipitation 0.44 in 0.05 in 1.92 in (1907)
Month to date precipitation 0.44  
Year to date precipitation 0.44  
Sea Level Pressure  
Sea Level Pressure 30.14 in    
Wind  
Wind Speed 2 mph (South)    
Max Wind Speed 14 mph    
Max Gust Speed 20 mph    
Visibility 7 miles    
Events Rain , Snow    
T = Trace of Precipitation, MM = Missing Value Source: NWS Daily Summary

Daily Weather History Graph

Daily Weather History Graph

Search for Another Location

Airport:

Trip Planner

Search our weather history database for the weather conditions in past years. The results will help you decide how hot, cold, wet, or windy it might be!

Date:

Astronomy

Jan. 08, 2013 Rise Set
Actual Time 7:35 AM CST 5:26 PM CST
Civil Twilight 7:06 AM CST 5:55 PM CST
Nautical Twilight 6:35 AM CST 6:26 PM CST
Astronomical Twilight 6:04 AM CST 6:57 PM CST
Moon 4:09 AM CST (1/8) 2:29 PM CST (1/8)
Length of Visible Light 10h 48m
Length of Day
9h 51m
Waning Crescent, 13% of the Moon is Illuminated
Jan 8
Waning Crescent
Jan 11
New
Jan 18
First Quarter
Jan 26
Full
Feb 3
Last Quarter

Hourly Weather History & Observations

Time (CST) Temp. Windchill Dew Point Humidity Pressure Visibility Wind Dir Wind Speed Gust Speed Precip Events Conditions
12:53 AM 28.9 °F - 24.1 °F 82% 30.15 in 10.0 mi Calm Calm - N/A   Clear
1:53 AM 30.0 °F - 24.1 °F 79% 30.15 in 10.0 mi Calm Calm - N/A   Clear
2:53 AM 27.0 °F - 23.0 °F 85% 30.15 in 10.0 mi Calm Calm - N/A   Clear
3:53 AM 28.9 °F - 25.0 °F 85% 30.14 in 10.0 mi Calm Calm - N/A   Clear
4:53 AM 30.9 °F - 25.0 °F 79% 30.12 in 10.0 mi Calm Calm - N/A   Scattered Clouds
5:53 AM 30.0 °F - 24.1 °F 79% 30.13 in 10.0 mi Calm Calm - N/A   Mostly Cloudy
6:53 AM 30.0 °F - 24.1 °F 79% 30.14 in 10.0 mi Calm Calm - N/A   Overcast
7:53 AM 28.0 °F - 24.1 °F 85% 30.16 in 10.0 mi Calm Calm - N/A   Clear
8:53 AM 35.1 °F 32.2 °F 26.1 °F 70% 30.16 in - South 3.5 mph - N/A   Partly Cloudy
9:03 AM 35.6 °F 31.7 °F 26.6 °F 70% 30.13 in - South 4.6 mph - 0.00 in Snow Light Snow
9:53 AM 39.9 °F - 28.0 °F 63% 30.15 in 10.0 mi North - - 0.11 in   Scattered Clouds
10:53 AM 48.0 °F - 30.0 °F 50% 30.13 in 10.0 mi South 9.2 mph - N/A   Clear
11:53 AM 52.0 °F - 32.0 °F 47% 30.09 in 10.0 mi South 9.2 mph - N/A   Clear
12:53 PM 55.0 °F - 33.1 °F 43% 30.07 in 10.0 mi South 10.4 mph - N/A   Clear
1:53 PM 55.9 °F - 34.0 °F 44% 30.06 in 10.0 mi South 13.8 mph 19.6 mph N/A   Mostly Cloudy
2:53 PM 55.9 °F - 34.0 °F 44% 30.07 in 10.0 mi SSW 10.4 mph - N/A   Overcast
3:53 PM 53.1 °F - 39.9 °F 61% 30.09 in 10.0 mi South 12.7 mph - 0.00 in Rain Light Rain
4:53 PM 51.1 °F - 42.1 °F 71% 30.10 in 10.0 mi Calm Calm - 0.00 in Rain Light Rain
5:53 PM 50.0 °F - 43.0 °F 77% 30.10 in 10.0 mi SSE 3.5 mph - 0.00 in   Overcast
6:53 PM 48.9 °F - 43.0 °F 80% 30.12 in 10.0 mi Calm Calm - N/A   Overcast
7:53 PM 48.0 °F - 44.1 °F 86% 30.16 in 7.0 mi SSE 5.8 mph - 0.01 in Rain Light Rain
8:18 PM 46.4 °F 44.3 °F 44.6 °F 93% 30.14 in 4.0 mi SE 4.6 mph - 0.02 in Rain Light Rain
8:53 PM 46.0 °F - 44.1 °F 93% 30.17 in 5.0 mi Calm Calm - 0.02 in Rain Light Rain
9:07 PM 46.4 °F - 44.6 °F 93% 30.15 in 4.0 mi Calm Calm - 0.01 in Rain Light Rain
9:53 PM 46.0 °F - 44.1 °F 93% 30.18 in 2.5 mi Calm Calm - 0.04 in Rain Light Rain
10:04 PM 46.4 °F - 44.6 °F 93% 30.16 in 2.5 mi Calm Calm - 0.01 in Rain Light Rain
10:12 PM 46.4 °F - 44.6 °F 93% 30.16 in 3.0 mi Calm Calm - 0.01 in Rain Light Rain
10:24 PM 46.4 °F - 44.6 °F 93% 30.16 in 2.5 mi Calm Calm - 0.03 in Rain Light Rain
10:31 PM 46.4 °F - 44.6 °F 93% 30.17 in 3.0 mi Calm Calm - 0.03 in Rain Light Rain
10:41 PM 46.4 °F - 44.6 °F 93% 30.17 in 2.0 mi Calm Calm - 0.07 in Rain Heavy Rain
11:23 PM 46.4 °F 44.3 °F 44.6 °F 93% 30.18 in 3.0 mi SSE 4.6 mph - 0.10 in Rain Light Rain
11:31 PM 46.4 °F 45.2 °F 44.6 °F 93% 30.18 in 2.0 mi SSE 3.5 mph - 0.17 in Rain Heavy Rain
11:46 PM 46.4 °F - 44.6 °F 93% 30.20 in 2.5 mi Calm Calm - 0.23 in Rain Rain
11:53 PM 46.0 °F - 45.0 °F 96% 30.21 in 2.0 mi Calm Calm - 0.26 in Rain Heavy Rain